Content
SEND FEEDBACK

Daily
Averages
Monthly
Summary
United States of America

WINKLER, KANSAS


Home > North America > United States > Kansas
Elevation: 1150 feet     Latitude: 39 28N     Longitude: 096 50W

WEATHER
 
SELECT A DAY
Number of Records: 202,085;   Date Range: 1/1/95 - 12/27/14
 
SHARE

PRINT THIS DATA

[ ← Previous Day ]
WEATHER ALMANAC - JANUARY 23, 2013
[ Next Day → ]
[ °C ]   °F
Weather ElementAverageHighLow
Temperature28.9 °F46.9 °F (1:52 pm)12.9 °F (5:52 am)
Dewpoint16.2 °F23 °F (1:52 pm)9 °F (5:52 am)
Humidity62.4 %84 % (1:52 am)36 % (2:52 pm)
Barometer30.29 in30.47 in (11:52 pm)30.21 in (11:52 am)
Wind Speed6.7 mph16.1 mph (7:52 pm)
Wind Gust21.9 mph (7:52 pm)
Weather ElementAverage
Visibility10 mi
Wind DirectionNE (50.4 °)

Weather ElementTotal
Precipitation---
Heating Degree Days35.1 (Base 65)
Averaged from 23 records on January 23, 2013
WEATHER CONDITIONS BREAKOUT
WIND DIRECTION BREAKOUT
WEATHER BY HOUR - JANUARY 23, 2013
[ °C ]   °F
Local TimeTemperatureDewpointHumidityBarometerVisibilityWind DirectionWind SpeedGust SpeedPrecipitationEventsConditions
1:52 AM15.1 °F10.9 °F84 %30.28 in10.0 miCalmClear
2:52 AM14.0 °F10.0 °F84 %30.27 in10.0 miCalmClear
3:52 AM14.0 °F10.0 °F84 %30.26 in10.0 miCalmClear
4:52 AM14.0 °F10.0 °F84 %30.25 in10.0 miCalmClear
5:52 AM12.9 °F9.0 °F84 %30.26 in10.0 miCalmClear
6:52 AM14.0 °F10.0 °F84 %30.25 in10.0 miCalmClear
7:52 AM15.1 °F10.9 °F84 %30.25 in10.0 miCalmClear
8:52 AM18.0 °F12.9 °F81 %30.25 in10.0 miCalmClear
9:52 AM28.0 °F19.0 °F69 %30.25 in10.0 miCalmClear
10:52 AM35.1 °F21.0 °F57 %30.25 in10.0 miSouth (170°)3.5 mphClear
11:52 AM41.0 °F21.2 °F45 %30.21 in10.0 miWNW (300°)4.6 mphClear
12:52 PM45.0 °F21.9 °F40 %30.22 in10.0 miNW (320°)4.6 mphClear
1:52 PM46.9 °F23.0 °F39 %30.21 in10.0 miNE (50°)10.4 mphClear
2:52 PM46.9 °F21.0 °F36 %30.21 in10.0 miNNE (20°)9.2 mphClear
3:52 PM46.9 °F21.0 °F36 %30.22 in10.0 miNNE (30°)11.5 mphClear
4:52 PM42.1 °F21.0 °F43 %30.27 in10.0 miNE (40°)12.7 mphClear
5:52 PM37.9 °F21.0 °F51 %30.31 in10.0 miNNE (20°)11.5 mphClear
6:52 PM35.1 °F19.0 °F52 %30.35 in10.0 miNNE (30°)13.8 mphClear
7:52 PM32.0 °F17.6 °F55 %30.35 in10.0 miNNE (30°)16.1 mph21.9 mphClear
8:52 PM28.9 °F16.0 °F58 %30.41 in10.0 miNNE (30°)12.7 mphClear
9:52 PM28.0 °F16.0 °F61 %30.43 in10.0 miNE (40°)13.8 mphClear
10:52 PM28.0 °F16.0 °F61 %30.45 in10.0 miNE (40°)15.0 mphClear
11:52 PM25.0 °F14.0 °F63 %30.47 in10.0 miNE (40°)15.0 mphClear
Hourly data recorded from KMHK, located miles away from Winkler, Kansas







STORIES FROM OUR PARTNERS